Location: Sungai Igah
(2.7333°N, 114.2500°E)
Time: 19:17:43
(UTC+00:00)

Cosmos 1818 - Pass Details

Date: 14 June 2021
Orbit: 771 x 802 km, 65.0° (Epoch: 25 July)

Event Time Altitude Azimuth Distance (km) Brightness Sun altitude
Exits shadow 20:49:16 33° 206° (SSW) 1,286 4.2 -20.3°
Maximum altitude 20:51:44 84° 290° (WNW) 788 3.4 -19.8°
Drops below altitude 10° 20:57:07 10° 20° (NNE) 2,337 6.6 -18.6°
Sets 20:59:32 0° 20° (NNE) 3,269 7.5 -18.0°
